Time,TemperatureF,DewpointF,PressureIn,WindDirection,WindDirectionDegrees,WindSpeedMPH,WindSpeedGustMPH,Humidity,HourlyPrecipIn,Conditions,Clouds,dailyrainin,SoftwareType,DateUTC
2013-01-05 00:01:00,34.7,34.7,0.00,South,170,0.0,0.0,100,0.00,,---,0.00,VWS V14.01,2013-01-05 06:01:00,
2013-01-05 00:06:00,34.9,34.9,0.00,South,170,0.0,0.0,100,0.00,,---,0.00,VWS V14.01,2013-01-05 06:06:00,
2013-01-05 00:11:00,34.9,34.9,0.00,South,170,0.0,0.0,100,0.00,,---,0.00,VWS V14.01,2013-01-05 06:11:00,
2013-01-05 00:16:00,35.1,35.1,0.00,South,170,0.0,0.0,100,0.00,,---,0.00,VWS V14.01,2013-01-05 06:16:00,
2013-01-05 00:21:00,35.1,35.1,0.00,South,170,0.0,0.0,100,0.00,,---,0.00,VWS V14.01,2013-01-05 06:21:00,
2013-01-05 00:26:00,35.1,35.1,0.00,South,170,0.0,0.0,100,0.00,,---,0.00,VWS V14.01,2013-01-05 06:26:00,
2013-01-05 00:31:00,35.2,35.2,0.00,South,170,0.0,0.0,100,0.00,,---,0.00,VWS V14.01,2013-01-05 06:31:00,
2013-01-05 00:36:00,35.2,35.2,0.00,South,170,0.0,0.0,100,0.00,,---,0.00,VWS V14.01,2013-01-05 06:36:00,
2013-01-05 00:41:00,35.2,35.2,0.00,South,170,0.0,0.0,100,0.00,,---,0.00,VWS V14.01,2013-01-05 06:41:00,
2013-01-05 00:46:00,35.4,35.4,0.00,South,170,0.0,0.0,100,0.00,,---,0.00,VWS V14.01,2013-01-05 06:46:00,
2013-01-05 00:51:00,35.6,35.6,0.00,South,170,0.0,0.0,100,0.00,,---,0.00,VWS V14.01,2013-01-05 06:51:00,
2013-01-05 00:56:00,35.6,35.6,0.00,South,170,0.0,0.0,100,0.00,,---,0.00,VWS V14.01,2013-01-05 06:56:00,
2013-01-05 01:01:00,35.6,35.6,0.00,South,170,0.0,0.0,100,0.00,,---,0.00,VWS V14.01,2013-01-05 07:01:00,
2013-01-05 01:06:00,35.6,35.6,0.00,South,170,0.0,0.0,100,0.00,,---,0.00,VWS V14.01,2013-01-05 07:06:00,
2013-01-05 01:11:00,35.6,35.6,0.00,South,170,0.0,0.0,100,0.00,,---,0.00,VWS V14.01,2013-01-05 07:11:00,
2013-01-05 01:16:00,35.6,35.6,0.00,South,170,0.0,0.0,100,0.00,,---,0.00,VWS V14.01,2013-01-05 07:16:00,
2013-01-05 01:21:00,35.8,35.8,0.00,South,170,0.0,0.0,100,0.00,,---,0.00,VWS V14.01,2013-01-05 07:21:00,
2013-01-05 01:26:00,35.8,35.8,0.00,South,170,0.0,0.0,100,0.00,,---,0.00,VWS V14.01,2013-01-05 07:26:00,
2013-01-05 01:31:00,35.8,35.8,0.00,South,170,0.0,0.0,100,0.00,,---,0.00,VWS V14.01,2013-01-05 07:31:00,
2013-01-05 01:36:00,35.8,35.8,0.00,South,170,0.0,0.0,100,0.00,,---,0.00,VWS V14.01,2013-01-05 07:36:00,
2013-01-05 01:41:00,35.6,35.6,0.00,South,170,0.0,0.0,100,0.00,,---,0.00,VWS V14.01,2013-01-05 07:41:00,
2013-01-05 01:46:00,35.6,35.6,0.00,South,170,0.0,0.0,100,0.00,,---,0.00,VWS V14.01,2013-01-05 07:46:00,
2013-01-05 01:51:00,35.6,35.6,0.00,South,170,0.0,0.0,100,0.00,,---,0.00,VWS V14.01,2013-01-05 07:51:00,
2013-01-05 01:56:00,35.6,35.6,0.00,South,170,0.0,0.0,100,0.00,,---,0.00,VWS V14.01,2013-01-05 07:56:00,
2013-01-05 02:01:00,35.6,35.6,0.00,South,170,0.0,0.0,100,0.00,,---,0.00,VWS V14.01,2013-01-05 08:01:00,
2013-01-05 02:06:00,35.8,35.8,0.00,South,170,0.0,0.0,100,0.00,,---,0.00,VWS V14.01,2013-01-05 08:06:00,
2013-01-05 02:11:00,35.8,35.8,0.00,South,170,0.0,0.0,100,0.00,,---,0.00,VWS V14.01,2013-01-05 08:11:00,
2013-01-05 02:15:00,35.6,35.6,0.00,South,170,0.0,0.0,100,0.00,,---,0.00,VWS V14.01,2013-01-05 08:15:00,
2013-01-05 02:20:00,35.8,35.8,0.00,South,170,0.0,0.0,100,0.00,,---,0.00,VWS V14.01,2013-01-05 08:20:00,
2013-01-05 02:25:00,35.8,35.8,0.00,South,170,0.0,0.0,100,0.00,,---,0.00,VWS V14.01,2013-01-05 08:25:00,
2013-01-05 02:30:00,35.8,35.8,0.00,South,170,0.0,0.0,100,0.00,,---,0.00,VWS V14.01,2013-01-05 08:30:00,
2013-01-05 02:35:00,36.1,36.1,0.00,South,170,0.0,0.0,100,0.00,,---,0.00,VWS V14.01,2013-01-05 08:35:00,
2013-01-05 02:40:00,36.3,36.3,0.00,South,170,0.0,0.0,100,0.00,,---,0.00,VWS V14.01,2013-01-05 08:40:00,
2013-01-05 02:45:00,36.1,36.1,0.00,South,170,0.0,0.0,100,0.00,,---,0.00,VWS V14.01,2013-01-05 08:45:00,
2013-01-05 02:50:00,36.1,36.1,0.00,South,170,0.0,0.0,100,0.00,,---,0.00,VWS V14.01,2013-01-05 08:50:00,
2013-01-05 02:55:00,36.1,36.1,0.00,South,170,0.0,0.0,100,0.00,,---,0.00,VWS V14.01,2013-01-05 08:55:00,
2013-01-05 03:00:00,36.1,36.1,0.00,South,170,0.0,0.0,100,0.00,,---,0.00,VWS V14.01,2013-01-05 09:00:00,
2013-01-05 03:05:00,36.1,36.1,0.00,South,170,0.0,0.0,100,0.00,,---,0.00,VWS V14.01,2013-01-05 09:05:00,
2013-01-05 03:10:00,36.1,36.1,0.00,South,170,0.0,0.0,100,0.00,,---,0.00,VWS V14.01,2013-01-05 09:10:00,
2013-01-05 03:15:00,36.1,36.1,0.00,South,170,0.0,0.0,100,0.00,,---,0.00,VWS V14.01,2013-01-05 09:15:00,
2013-01-05 03:20:00,36.5,36.5,0.00,South,170,0.0,0.0,100,0.00,,---,0.00,VWS V14.01,2013-01-05 09:20:00,
2013-01-05 03:25:00,36.7,36.7,0.00,South,170,0.0,0.0,100,0.00,,---,0.00,VWS V14.01,2013-01-05 09:25:00,
2013-01-05 03:30:00,36.7,36.7,0.00,South,170,0.0,0.0,100,0.00,,---,0.00,VWS V14.01,2013-01-05 09:30:00,
2013-01-05 03:35:00,36.5,36.5,0.00,South,170,0.0,0.0,100,0.00,,---,0.00,VWS V14.01,2013-01-05 09:35:00,
2013-01-05 03:40:00,36.5,36.5,0.00,South,170,0.0,0.0,100,0.00,,---,0.00,VWS V14.01,2013-01-05 09:40:00,
2013-01-05 03:45:00,36.5,36.5,0.00,South,170,0.0,0.0,100,0.00,,---,0.00,VWS V14.01,2013-01-05 09:45:00,
2013-01-05 03:50:00,36.5,36.5,0.00,South,170,0.0,0.0,100,0.00,,---,0.00,VWS V14.01,2013-01-05 09:50:00,
2013-01-05 03:55:00,36.7,36.7,0.00,South,170,0.0,0.0,100,0.00,,---,0.00,VWS V14.01,2013-01-05 09:55:00,
2013-01-05 04:00:00,36.9,36.9,0.00,South,170,0.0,0.0,100,0.00,,---,0.00,VWS V14.01,2013-01-05 10:00:00,
2013-01-05 04:05:00,37.0,37.0,0.00,South,170,0.0,0.0,100,0.00,,---,0.00,VWS V14.01,2013-01-05 10:05:00,
2013-01-05 04:10:00,37.0,37.0,0.00,South,170,0.0,0.0,100,0.00,,---,0.00,VWS V14.01,2013-01-05 10:10:00,
2013-01-05 04:15:00,37.2,37.2,0.00,South,170,0.0,0.0,100,0.00,,---,0.00,VWS V14.01,2013-01-05 10:15:00,
2013-01-05 04:20:00,37.2,37.2,0.00,South,170,0.0,0.0,100,0.00,,---,0.00,VWS V14.01,2013-01-05 10:20:00,
2013-01-05 04:25:00,37.2,37.2,0.00,South,170,0.0,0.0,100,0.00,,---,0.00,VWS V14.01,2013-01-05 10:25:00,
2013-01-05 04:30:00,37.4,37.4,0.00,South,170,0.0,0.0,100,0.00,,---,0.00,VWS V14.01,2013-01-05 10:30:00,
2013-01-05 04:35:00,37.8,37.8,0.00,South,170,0.0,0.0,100,0.00,,---,0.00,VWS V14.01,2013-01-05 10:35:00,
2013-01-05 04:40:00,37.9,37.9,0.00,South,170,0.0,0.0,100,0.00,,---,0.00,VWS V14.01,2013-01-05 10:40:00,
2013-01-05 04:45:00,38.3,38.3,0.00,South,170,0.0,0.0,100,0.00,,---,0.00,VWS V14.01,2013-01-05 10:45:00,
2013-01-05 04:50:00,38.7,38.7,0.00,South,170,0.0,0.0,100,0.00,,---,0.00,VWS V14.01,2013-01-05 10:50:00,
2013-01-05 04:55:00,38.8,38.8,0.00,South,170,0.0,0.0,100,0.00,,---,0.00,VWS V14.01,2013-01-05 10:55:00,
2013-01-05 05:00:00,39.4,39.4,0.00,South,170,0.0,0.0,100,0.00,,---,0.00,VWS V14.01,2013-01-05 11:00:00,
2013-01-05 05:05:00,39.7,39.7,0.00,South,170,0.0,0.0,100,0.00,,---,0.00,VWS V14.01,2013-01-05 11:05:00,
2013-01-05 05:10:00,40.5,40.5,0.00,South,170,0.0,0.0,100,0.00,,---,0.00,VWS V14.01,2013-01-05 11:10:00,
2013-01-05 05:15:00,41.5,41.5,0.00,South,170,0.0,0.0,100,0.00,,---,0.00,VWS V14.01,2013-01-05 11:15:00,
2013-01-05 05:20:00,42.1,42.1,0.00,South,170,0.0,0.0,100,0.00,,---,0.00,VWS V14.01,2013-01-05 11:20:00,
2013-01-05 05:25:00,42.6,42.6,0.00,South,170,0.0,0.0,100,0.00,,---,0.00,VWS V14.01,2013-01-05 11:25:00,
2013-01-05 05:30:00,43.2,43.2,0.00,South,170,0.0,0.0,100,0.00,,---,0.00,VWS V14.01,2013-01-05 11:30:00,
2013-01-05 05:35:00,43.3,43.3,0.00,South,170,0.0,0.0,100,0.00,,---,0.00,VWS V14.01,2013-01-05 11:35:00,
2013-01-05 05:40:00,43.7,43.7,0.00,South,170,0.0,0.0,100,0.00,,---,0.00,VWS V14.01,2013-01-05 11:40:00,
2013-01-05 05:45:00,44.1,44.1,0.00,South,170,0.0,0.0,100,0.00,,---,0.00,VWS V14.01,2013-01-05 11:45:00,
2013-01-05 05:50:00,44.2,44.2,0.00,South,170,0.0,0.0,100,0.00,,---,0.00,VWS V14.01,2013-01-05 11:50:00,
2013-01-05 05:55:00,44.6,44.6,0.00,South,170,0.0,0.0,100,0.00,,---,0.00,VWS V14.01,2013-01-05 11:55:00,
2013-01-05 06:00:00,45.0,45.0,0.00,South,170,0.0,0.0,100,0.00,,---,0.00,VWS V14.01,2013-01-05 12:00:00,
2013-01-05 06:05:00,45.1,45.1,0.00,South,170,0.0,0.0,100,0.00,,---,0.00,VWS V14.01,2013-01-05 12:05:00,
2013-01-05 06:10:00,45.1,45.1,0.00,South,170,0.0,0.0,100,0.00,,---,0.00,VWS V14.01,2013-01-05 12:10:00,
2013-01-05 06:15:00,45.0,45.0,0.00,South,170,0.0,0.0,100,0.00,,---,0.00,VWS V14.01,2013-01-05 12:15:00,
2013-01-05 06:20:00,45.1,45.1,0.00,South,170,0.0,0.0,100,0.00,,---,0.00,VWS V14.01,2013-01-05 12:20:00,
2013-01-05 06:25:00,45.1,45.1,0.00,South,170,0.0,0.0,100,0.00,,---,0.00,VWS V14.01,2013-01-05 12:25:00,
2013-01-05 06:30:00,45.1,45.1,0.00,South,170,0.0,0.0,100,0.00,,---,0.00,VWS V14.01,2013-01-05 12:30:00,
2013-01-05 06:35:00,45.5,45.5,0.00,South,170,0.0,0.0,100,0.00,,---,0.00,VWS V14.01,2013-01-05 12:35:00,
2013-01-05 06:40:00,46.0,46.0,0.00,South,170,0.0,0.0,100,0.00,,---,0.00,VWS V14.01,2013-01-05 12:40:00,
2013-01-05 06:45:00,46.2,46.2,0.00,South,170,0.0,0.0,100,0.00,,---,0.00,VWS V14.01,2013-01-05 12:45:00,
2013-01-05 06:50:00,46.4,46.4,0.00,South,170,0.0,0.0,100,0.00,,---,0.00,VWS V14.01,2013-01-05 12:50:00,
2013-01-05 06:55:00,46.6,46.6,0.00,South,170,0.0,0.0,100,0.00,,---,0.00,VWS V14.01,2013-01-05 12:55:00,
2013-01-05 07:00:00,46.8,46.8,0.00,South,170,0.0,0.0,100,0.00,,---,0.00,VWS V14.01,2013-01-05 13:00:00,
2013-01-05 07:05:00,46.9,46.9,0.00,South,170,0.0,0.0,100,0.00,,---,0.00,VWS V14.01,2013-01-05 13:05:00,
2013-01-05 07:10:00,46.9,46.9,0.00,South,170,0.0,0.0,100,0.00,,---,0.00,VWS V14.01,2013-01-05 13:10:00,
2013-01-05 07:15:00,47.1,47.1,0.00,South,170,0.0,0.0,100,0.00,,---,0.00,VWS V14.01,2013-01-05 13:15:00,
2013-01-05 07:20:00,47.3,47.3,0.00,South,170,0.0,0.0,100,0.00,,---,0.00,VWS V14.01,2013-01-05 13:20:00,
2013-01-05 07:25:00,47.5,47.5,0.00,SE,138,0.0,0.0,100,0.00,,---,0.00,VWS V14.01,2013-01-05 13:25:00,
2013-01-05 07:30:00,47.5,47.5,0.00,SE,138,0.0,0.0,100,0.00,,---,0.00,VWS V14.01,2013-01-05 13:30:00,
2013-01-05 07:35:00,47.7,47.7,0.00,SE,138,0.0,0.0,100,0.00,,---,0.00,VWS V14.01,2013-01-05 13:35:00,
2013-01-05 07:40:00,47.8,47.8,0.00,SSW,206,0.0,0.0,100,0.00,,---,0.00,VWS V14.01,2013-01-05 13:40:00,
2013-01-05 07:45:00,47.5,47.5,0.00,ESE,118,0.0,0.0,100,0.00,,---,0.00,VWS V14.01,2013-01-05 13:45:00,
2013-01-05 07:50:00,47.7,47.7,0.00,SSW,202,0.0,0.0,100,0.00,,---,0.00,VWS V14.01,2013-01-05 13:50:00,
2013-01-05 07:55:00,47.7,47.7,0.00,SSW,204,0.0,0.0,100,0.00,,---,0.00,VWS V14.01,2013-01-05 13:55:00,
2013-01-05 08:00:00,47.3,47.3,0.00,SSW,204,0.0,0.0,100,0.00,,---,0.00,VWS V14.01,2013-01-05 14:00:00,
2013-01-05 08:05:00,47.1,47.1,0.00,SSW,210,0.0,0.0,100,0.00,,---,0.00,VWS V14.01,2013-01-05 14:05:00,
2013-01-05 08:10:00,47.3,47.3,0.00,SSW,195,3.6,3.6,100,0.00,,---,0.00,VWS V14.01,2013-01-05 14:10:00,
2013-01-05 08:15:00,48.2,48.2,0.00,SSW,200,0.0,0.0,100,0.00,,---,0.00,VWS V14.01,2013-01-05 14:15:00,
2013-01-05 08:20:00,49.5,49.5,0.00,SSE,156,0.0,0.0,100,0.00,,---,0.00,VWS V14.01,2013-01-05 14:20:00,
2013-01-05 08:25:00,50.4,50.4,0.00,SSE,155,0.0,0.0,100,0.00,,---,0.00,VWS V14.01,2013-01-05 14:25:00,
2013-01-05 08:30:00,51.1,51.1,0.00,SSE,155,0.0,0.0,100,0.00,,---,0.00,VWS V14.01,2013-01-05 14:30:00,
2013-01-05 08:35:00,51.8,51.8,0.00,SE,146,0.0,0.0,100,0.00,,---,0.00,VWS V14.01,2013-01-05 14:35:00,
2013-01-05 08:40:00,52.7,52.7,0.00,SSE,154,0.0,0.0,100,0.00,,---,0.00,VWS V14.01,2013-01-05 14:40:00,
2013-01-05 08:45:00,53.1,53.1,0.00,SSW,202,0.0,0.0,100,0.00,,---,0.00,VWS V14.01,2013-01-05 14:45:00,
2013-01-05 08:50:00,53.2,53.2,0.00,SSW,208,3.1,3.1,100,0.00,,---,0.00,VWS V14.01,2013-01-05 14:50:00,
2013-01-05 08:55:00,52.9,52.9,0.00,SSW,202,3.6,3.6,100,0.00,,---,0.00,VWS V14.01,2013-01-05 14:55:00,
2013-01-05 09:00:00,53.1,53.1,0.00,South,179,0.0,0.0,100,0.00,,---,0.00,VWS V14.01,2013-01-05 15:00:00,
2013-01-05 09:05:00,52.2,52.2,0.00,South,185,0.0,0.0,100,0.00,,---,0.00,VWS V14.01,2013-01-05 15:05:00,
2013-01-05 09:10:00,51.1,50.5,0.00,SW,220,0.0,0.0,98,0.00,,---,0.00,VWS V14.01,2013-01-05 15:10:00,
2013-01-05 09:15:00,50.2,48.2,0.00,SSW,211,2.7,2.7,93,0.00,,---,0.00,VWS V14.01,2013-01-05 15:15:00,
2013-01-05 09:20:00,49.1,46.3,0.00,SSW,208,4.5,4.5,90,0.00,,---,0.00,VWS V14.01,2013-01-05 15:20:00,
2013-01-05 09:25:00,48.0,44.6,0.00,SW,215,3.6,3.6,88,0.00,,---,0.00,VWS V14.01,2013-01-05 15:25:00,
2013-01-05 09:30:00,46.0,41.2,0.00,SW,217,3.6,3.6,83,0.00,,---,0.00,VWS V14.01,2013-01-05 15:30:00,
2013-01-05 09:35:00,44.6,38.8,0.00,SW,220,0.0,0.0,80,0.00,,---,0.00,VWS V14.01,2013-01-05 15:35:00,
2013-01-05 09:40:00,43.5,36.8,0.00,South,186,0.0,0.0,77,0.00,,---,0.00,VWS V14.01,2013-01-05 15:40:00,
2013-01-05 09:45:00,42.4,34.4,0.00,SSW,193,0.0,0.0,73,0.00,,---,0.00,VWS V14.01,2013-01-05 15:45:00,
2013-01-05 09:50:00,42.1,33.0,0.00,SE,145,0.0,0.0,70,0.00,,---,0.00,VWS V14.01,2013-01-05 15:50:00,
2013-01-05 09:55:00,41.9,32.5,0.00,SSW,201,0.0,0.0,69,0.00,,---,0.00,VWS V14.01,2013-01-05 15:55:00,
2013-01-05 10:00:00,41.4,29.7,0.00,SE,139,0.0,2.2,63,0.00,,---,0.00,VWS V14.01,2013-01-05 16:00:00,
2013-01-05 10:05:00,41.5,29.9,0.00,South,181,2.2,2.7,63,0.00,,---,0.00,VWS V14.01,2013-01-05 16:05:00,
2013-01-05 10:10:00,41.9,29.5,0.00,SSE,150,0.0,0.0,61,0.00,,---,0.00,VWS V14.01,2013-01-05 16:10:00,
2013-01-05 10:15:00,42.3,29.8,0.00,SSE,166,0.0,0.0,61,0.00,,---,0.00,VWS V14.01,2013-01-05 16:15:00,
2013-01-05 10:20:00,42.4,29.1,0.00,SSE,154,0.0,0.0,59,0.00,,---,0.00,VWS V14.01,2013-01-05 16:20:00,
2013-01-05 10:25:00,42.6,28.9,0.00,SSW,199,0.0,0.0,58,0.00,,---,0.00,VWS V14.01,2013-01-05 16:25:00,
2013-01-05 10:30:00,43.0,29.6,0.00,SW,214,0.0,0.0,59,0.00,,---,0.00,VWS V14.01,2013-01-05 16:30:00,
2013-01-05 10:35:00,43.3,30.0,0.00,SSW,207,0.0,0.0,59,0.00,,---,0.00,VWS V14.01,2013-01-05 16:35:00,
2013-01-05 10:40:00,43.5,29.7,0.00,SW,214,0.0,0.0,58,0.00,,---,0.00,VWS V14.01,2013-01-05 16:40:00,
2013-01-05 10:45:00,43.9,29.6,0.00,SW,225,0.0,0.0,57,0.00,,---,0.00,VWS V14.01,2013-01-05 16:45:00,
2013-01-05 10:50:00,44.2,30.0,0.00,SSW,210,0.0,0.0,57,0.00,,---,0.00,VWS V14.01,2013-01-05 16:50:00,
2013-01-05 10:55:00,44.1,28.5,0.00,SSE,167,0.0,0.0,54,0.00,,---,0.00,VWS V14.01,2013-01-05 16:55:00,
2013-01-05 11:00:00,43.5,27.1,0.00,SW,218,0.0,5.8,52,0.00,,---,0.00,VWS V14.01,2013-01-05 17:00:00,
2013-01-05 11:05:00,43.2,27.7,0.00,SSW,211,5.8,5.8,54,0.00,,---,0.00,VWS V14.01,2013-01-05 17:05:00,
2013-01-05 11:10:00,43.0,27.5,0.00,SSE,156,6.3,6.3,54,0.00,,---,0.00,VWS V14.01,2013-01-05 17:10:00,
2013-01-05 11:15:00,42.8,26.4,0.00,South,177,3.1,3.1,52,0.00,,---,0.00,VWS V14.01,2013-01-05 17:15:00,
2013-01-05 11:20:00,42.8,26.4,0.00,SE,135,2.7,4.0,52,0.00,,---,0.00,VWS V14.01,2013-01-05 17:20:00,
2013-01-05 11:25:00,43.2,26.7,0.00,WSW,244,8.1,8.1,52,0.00,,---,0.00,VWS V14.01,2013-01-05 17:25:00,
2013-01-05 11:30:00,43.5,27.1,0.00,SW,224,4.0,5.8,52,0.00,,---,0.00,VWS V14.01,2013-01-05 17:30:00,
2013-01-05 11:35:00,43.7,27.2,0.00,SSW,208,6.3,6.3,52,0.00,,---,0.00,VWS V14.01,2013-01-05 17:35:00,
2013-01-05 11:40:00,43.9,27.4,0.00,SSW,208,5.8,5.8,52,0.00,,---,0.00,VWS V14.01,2013-01-05 17:40:00,
2013-01-05 11:45:00,44.1,26.1,0.00,SW,223,3.6,5.8,49,0.00,,---,0.00,VWS V14.01,2013-01-05 17:45:00,
2013-01-05 11:50:00,44.1,26.1,0.00,SSW,195,0.0,0.0,49,0.00,,---,0.00,VWS V14.01,2013-01-05 17:50:00,
2013-01-05 11:55:00,44.4,26.5,0.00,SW,232,5.8,7.2,49,0.00,,---,0.00,VWS V14.01,2013-01-05 17:55:00,
2013-01-05 12:00:00,44.4,26.5,0.00,SSW,196,6.3,6.3,49,0.00,,---,0.00,VWS V14.01,2013-01-05 18:00:00,
2013-01-05 12:05:00,44.4,25.5,0.00,SW,222,4.5,4.9,47,0.00,,---,0.00,VWS V14.01,2013-01-05 18:05:00,
2013-01-05 12:10:00,44.6,26.6,0.00,SW,219,0.0,0.0,49,0.00,,---,0.00,VWS V14.01,2013-01-05 18:10:00,
2013-01-05 12:15:00,45.0,25.4,0.00,SW,218,5.8,5.8,46,0.00,,---,0.00,VWS V14.01,2013-01-05 18:15:00,
2013-01-05 12:20:00,44.8,25.3,0.00,WSW,254,3.1,3.1,46,0.00,,---,0.00,VWS V14.01,2013-01-05 18:20:00,
2013-01-05 12:25:00,45.1,25.6,0.00,SW,220,8.1,8.1,46,0.00,,---,0.00,VWS V14.01,2013-01-05 18:25:00,
2013-01-05 12:30:00,45.3,25.8,0.00,South,191,4.9,5.4,46,0.00,,---,0.00,VWS V14.01,2013-01-05 18:30:00,
2013-01-05 12:35:00,45.3,25.8,0.00,SSW,213,4.9,4.9,46,0.00,,---,0.00,VWS V14.01,2013-01-05 18:35:00,
2013-01-05 12:40:00,45.3,25.8,0.00,SSW,213,8.1,8.1,46,0.00,,---,0.00,VWS V14.01,2013-01-05 18:40:00,
2013-01-05 12:45:00,45.3,25.8,0.00,South,178,4.9,5.4,46,0.00,,---,0.00,VWS V14.01,2013-01-05 18:45:00,
2013-01-05 12:50:00,45.1,25.6,0.00,SW,228,2.7,5.4,46,0.00,,---,0.00,VWS V14.01,2013-01-05 18:50:00,
2013-01-05 12:55:00,45.5,25.9,0.00,WSW,255,3.1,4.0,46,0.00,,---,0.00,VWS V14.01,2013-01-05 18:55:00,
2013-01-05 13:00:00,46.0,26.4,0.00,SSW,204,5.8,5.8,46,0.00,,---,0.00,VWS V14.01,2013-01-05 19:00:00,
2013-01-05 13:05:00,46.6,26.9,0.00,SW,216,5.4,5.4,46,0.00,,---,0.00,VWS V14.01,2013-01-05 19:05:00,
2013-01-05 13:10:00,47.3,27.6,0.00,SSW,209,5.4,6.3,46,0.00,,---,0.00,VWS V14.01,2013-01-05 19:10:00,
2013-01-05 13:15:00,47.3,27.6,0.00,SSW,204,0.0,0.0,46,0.00,,---,0.00,VWS V14.01,2013-01-05 19:15:00,
2013-01-05 13:20:00,47.1,27.4,0.00,SSW,213,4.9,4.9,46,0.00,,---,0.00,VWS V14.01,2013-01-05 19:20:00,
2013-01-05 13:25:00,46.8,25.5,0.00,South,189,3.6,6.3,43,0.00,,---,0.00,VWS V14.01,2013-01-05 19:25:00,
2013-01-05 13:30:00,46.4,26.8,0.00,SSW,207,4.0,6.3,46,0.00,,---,0.00,VWS V14.01,2013-01-05 19:30:00,
2013-01-05 13:35:00,46.0,26.4,0.00,SSW,209,0.0,0.0,46,0.00,,---,0.00,VWS V14.01,2013-01-05 19:35:00,
2013-01-05 13:40:00,45.9,25.2,0.00,SW,219,4.0,4.9,44,0.00,,---,0.00,VWS V14.01,2013-01-05 19:40:00,
2013-01-05 13:45:00,45.9,26.3,0.00,SSW,194,0.0,2.7,46,0.00,,---,0.00,VWS V14.01,2013-01-05 19:45:00,
2013-01-05 13:50:00,46.2,26.6,0.00,SSW,203,3.1,4.0,46,0.00,,---,0.00,VWS V14.01,2013-01-05 19:50:00,
2013-01-05 13:55:00,46.8,27.1,0.00,SW,215,7.6,7.6,46,0.00,,---,0.00,VWS V14.01,2013-01-05 19:55:00,
2013-01-05 14:00:00,46.9,25.6,0.00,WSW,249,5.4,7.6,43,0.00,,---,0.00,VWS V14.01,2013-01-05 20:00:00,
2013-01-05 14:05:00,46.4,25.1,0.00,SW,225,4.0,4.0,43,0.00,,---,0.00,VWS V14.01,2013-01-05 20:05:00,
2013-01-05 14:10:00,46.4,25.1,0.00,West,263,0.0,0.0,43,0.00,,---,0.00,VWS V14.01,2013-01-05 20:10:00,
2013-01-05 14:15:00,46.4,25.1,0.00,SW,236,5.8,5.8,43,0.00,,---,0.00,VWS V14.01,2013-01-05 20:15:00,
2013-01-05 14:20:00,46.0,25.4,0.00,SW,223,2.7,2.7,44,0.00,,---,0.00,VWS V14.01,2013-01-05 20:20:00,
2013-01-05 14:25:00,45.9,25.2,0.00,SSE,151,4.0,4.0,44,0.00,,---,0.00,VWS V14.01,2013-01-05 20:25:00,
2013-01-05 14:30:00,45.7,25.0,0.00,South,169,5.4,6.3,44,0.00,,---,0.00,VWS V14.01,2013-01-05 20:30:00,
2013-01-05 14:35:00,45.5,24.9,0.00,SW,220,3.6,3.6,44,0.00,,---,0.00,VWS V14.01,2013-01-05 20:35:00,
2013-01-05 14:40:00,45.3,25.8,0.00,SW,224,2.7,4.0,46,0.00,,---,0.00,VWS V14.01,2013-01-05 20:40:00,
2013-01-05 14:45:00,45.0,25.4,0.00,WSW,237,2.7,3.6,46,0.00,,---,0.00,VWS V14.01,2013-01-05 20:45:00,
2013-01-05 14:50:00,44.6,25.1,0.00,SW,226,2.7,3.1,46,0.00,,---,0.00,VWS V14.01,2013-01-05 20:50:00,
2013-01-05 14:55:00,44.2,25.3,0.00,South,190,3.1,3.1,47,0.00,,---,0.00,VWS V14.01,2013-01-05 20:55:00,
2013-01-05 15:00:00,44.2,25.3,0.00,SSW,213,0.0,0.0,47,0.00,,---,0.00,VWS V14.01,2013-01-05 21:00:00,
2013-01-05 15:05:00,44.2,25.3,0.00,SSW,193,2.7,4.9,47,0.00,,---,0.00,VWS V14.01,2013-01-05 21:05:00,
2013-01-05 15:10:00,44.4,25.5,0.00,South,189,3.6,4.0,47,0.00,,---,0.00,VWS V14.01,2013-01-05 21:10:00,
2013-01-05 15:15:00,44.4,25.5,0.00,SW,216,3.6,3.6,47,0.00,,---,0.00,VWS V14.01,2013-01-05 21:15:00,
2013-01-05 15:20:00,44.4,25.5,0.00,SW,223,2.7,3.1,47,0.00,,---,0.00,VWS V14.01,2013-01-05 21:20:00,
2013-01-05 15:25:00,44.2,25.3,0.00,SSW,203,5.4,5.4,47,0.00,,---,0.00,VWS V14.01,2013-01-05 21:25:00,
2013-01-05 15:30:00,43.7,24.8,0.00,SW,223,4.9,5.4,47,0.00,,---,0.00,VWS V14.01,2013-01-05 21:30:00,
2013-01-05 15:35:00,43.5,24.6,0.00,SSW,209,3.6,4.9,47,0.00,,---,0.00,VWS V14.01,2013-01-05 21:35:00,
2013-01-05 15:40:00,43.3,24.5,0.00,SSW,208,5.8,5.8,47,0.00,,---,0.00,VWS V14.01,2013-01-05 21:40:00,
2013-01-05 15:45:00,43.2,24.3,0.00,SW,225,3.6,3.6,47,0.00,,---,0.00,VWS V14.01,2013-01-05 21:45:00,
2013-01-05 15:50:00,43.2,24.3,0.00,SSW,197,2.2,2.7,47,0.00,,---,0.00,VWS V14.01,2013-01-05 21:50:00,
2013-01-05 15:55:00,43.2,24.3,0.00,SSW,200,0.0,2.7,47,0.00,,---,0.00,VWS V14.01,2013-01-05 21:55:00,
2013-01-05 16:00:00,42.8,24.0,0.00,South,184,0.0,2.7,47,0.00,,---,0.00,VWS V14.01,2013-01-05 22:00:00,
2013-01-05 16:05:00,42.4,23.6,0.00,SW,216,0.0,0.0,47,0.00,,---,0.00,VWS V14.01,2013-01-05 22:05:00,
2013-01-05 16:10:00,42.3,23.5,0.00,SW,224,0.0,0.0,47,0.00,,---,0.00,VWS V14.01,2013-01-05 22:10:00,
2013-01-05 16:15:00,42.3,23.5,0.00,SSW,210,0.0,0.0,47,0.00,,---,0.00,VWS V14.01,2013-01-05 22:15:00,
2013-01-05 16:20:00,42.1,24.8,0.00,South,182,3.6,4.0,50,0.00,,---,0.00,VWS V14.01,2013-01-05 22:20:00,
2013-01-05 16:25:00,41.7,24.5,0.00,SW,220,0.0,0.0,50,0.00,,---,0.00,VWS V14.01,2013-01-05 22:25:00,
2013-01-05 16:30:00,41.5,24.3,0.00,SSW,213,0.0,0.0,50,0.00,,---,0.00,VWS V14.01,2013-01-05 22:30:00,
2013-01-05 16:35:00,41.4,24.1,0.00,SW,222,0.0,0.0,50,0.00,,---,0.00,VWS V14.01,2013-01-05 22:35:00,
2013-01-05 16:40:00,41.2,24.0,0.00,SSE,159,0.0,0.0,50,0.00,,---,0.00,VWS V14.01,2013-01-05 22:40:00,
2013-01-05 16:45:00,41.0,23.8,0.00,SW,216,0.0,0.0,50,0.00,,---,0.00,VWS V14.01,2013-01-05 22:45:00,
2013-01-05 16:50:00,40.8,24.6,0.00,SW,228,3.1,4.0,52,0.00,,---,0.00,VWS V14.01,2013-01-05 22:50:00,
2013-01-05 16:55:00,40.6,24.4,0.00,SSE,148,0.0,2.7,52,0.00,,---,0.00,VWS V14.01,2013-01-05 22:55:00,
2013-01-05 17:00:00,40.6,24.4,0.00,SSW,203,3.1,5.8,52,0.00,,---,0.00,VWS V14.01,2013-01-05 23:00:00,
2013-01-05 17:05:00,40.5,24.2,0.00,South,185,3.6,4.0,52,0.00,,---,0.00,VWS V14.01,2013-01-05 23:05:00,
2013-01-05 17:10:00,40.5,24.2,0.00,SW,224,5.8,5.8,52,0.00,,---,0.00,VWS V14.01,2013-01-05 23:10:00,
2013-01-05 17:15:00,40.3,25.4,0.00,SW,218,0.0,0.0,55,0.00,,---,0.00,VWS V14.01,2013-01-05 23:15:00,
2013-01-05 17:20:00,40.3,25.4,0.00,SSW,202,0.0,0.0,55,0.00,,---,0.00,VWS V14.01,2013-01-05 23:20:00,
2013-01-05 17:25:00,40.1,25.2,0.00,SSW,205,0.0,0.0,55,0.00,,---,0.00,VWS V14.01,2013-01-05 23:25:00,
2013-01-05 17:30:00,39.9,25.1,0.00,SSW,201,0.0,0.0,55,0.00,,---,0.00,VWS V14.01,2013-01-05 23:30:00,
2013-01-05 17:35:00,39.9,25.1,0.00,SW,217,0.0,0.0,55,0.00,,---,0.00,VWS V14.01,2013-01-05 23:35:00,
2013-01-05 17:40:00,39.9,25.1,0.00,South,190,0.0,0.0,55,0.00,,---,0.00,VWS V14.01,2013-01-05 23:40:00,
2013-01-05 17:45:00,39.7,25.8,0.00,SSW,201,0.0,0.0,57,0.00,,---,0.00,VWS V14.01,2013-01-05 23:45:00,
2013-01-05 17:50:00,39.7,25.8,0.00,South,172,0.0,0.0,57,0.00,,---,0.00,VWS V14.01,2013-01-05 23:50:00,
2013-01-05 17:55:00,39.7,24.9,0.00,South,176,2.7,3.6,55,0.00,,---,0.00,VWS V14.01,2013-01-05 23:55:00,
2013-01-05 18:00:00,39.7,24.9,0.00,SSW,201,0.0,0.0,55,0.00,,---,0.00,VWS V14.01,2013-01-06 00:00:00,
2013-01-05 18:05:00,39.7,24.9,0.00,SW,230,4.9,6.7,55,0.00,,---,0.00,VWS V14.01,2013-01-06 00:05:00,
2013-01-05 18:10:00,39.7,24.9,0.00,SW,224,5.4,8.1,55,0.00,,---,0.00,VWS V14.01,2013-01-06 00:10:00,
2013-01-05 18:15:00,39.9,23.7,0.00,WSW,246,2.7,3.1,52,0.00,,---,0.00,VWS V14.01,2013-01-06 00:15:00,
2013-01-05 18:20:00,39.9,23.7,0.00,SW,215,4.0,4.9,52,0.00,,---,0.00,VWS V14.01,2013-01-06 00:20:00,
2013-01-05 18:25:00,39.9,23.7,0.00,SSW,209,2.7,3.1,52,0.00,,---,0.00,VWS V14.01,2013-01-06 00:25:00,
2013-01-05 18:30:00,39.7,23.6,0.00,WSW,240,2.7,2.7,52,0.00,,---,0.00,VWS V14.01,2013-01-06 00:30:00,
2013-01-05 18:35:00,39.7,24.9,0.00,SW,216,4.5,4.5,55,0.00,,---,0.00,VWS V14.01,2013-01-06 00:35:00,
2013-01-05 18:40:00,39.6,24.7,0.00,SW,214,2.2,3.1,55,0.00,,---,0.00,VWS V14.01,2013-01-06 00:40:00,
2013-01-05 18:45:00,39.2,24.4,0.00,SSW,197,0.0,0.0,55,0.00,,---,0.00,VWS V14.01,2013-01-06 00:45:00,
2013-01-05 18:50:00,39.0,24.2,0.00,WSW,253,0.0,0.0,55,0.00,,---,0.00,VWS V14.01,2013-01-06 00:50:00,
2013-01-05 18:55:00,38.7,23.9,0.00,SW,223,0.0,0.0,55,0.00,,---,0.00,VWS V14.01,2013-01-06 00:55:00,
2013-01-05 19:00:00,37.8,24.3,0.00,SSW,197,0.0,3.6,58,0.00,,---,0.00,VWS V14.01,2013-01-06 01:00:00,
2013-01-05 19:05:00,37.2,24.2,0.00,South,181,0.0,0.0,59,0.00,,---,0.00,VWS V14.01,2013-01-06 01:05:00,
2013-01-05 19:10:00,36.5,23.5,0.00,South,188,0.0,0.0,59,0.00,,---,0.00,VWS V14.01,2013-01-06 01:10:00,
2013-01-05 19:15:00,35.8,22.9,0.00,South,187,0.0,0.0,59,0.00,,---,0.00,VWS V14.01,2013-01-06 01:15:00,
2013-01-05 19:20:00,35.1,23.0,0.00,SSW,200,0.0,0.0,61,0.00,,---,0.00,VWS V14.01,2013-01-06 01:20:00,
2013-01-05 19:25:00,34.3,22.7,0.00,SSW,200,0.0,0.0,62,0.00,,---,0.00,VWS V14.01,2013-01-06 01:25:00,
2013-01-05 19:30:00,34.0,22.7,0.00,SSW,201,0.0,0.0,63,0.00,,---,0.00,VWS V14.01,2013-01-06 01:30:00,
2013-01-05 19:35:00,33.8,23.3,0.00,SSW,201,0.0,0.0,65,0.00,,---,0.00,VWS V14.01,2013-01-06 01:35:00,
2013-01-05 19:40:00,33.4,23.7,0.00,SSW,200,0.0,0.0,67,0.00,,---,0.00,VWS V14.01,2013-01-06 01:40:00,
2013-01-05 19:45:00,33.4,24.4,0.00,South,183,0.0,0.0,69,0.00,,---,0.00,VWS V14.01,2013-01-06 01:45:00,
2013-01-05 19:50:00,33.6,24.5,0.00,SW,225,0.0,0.0,69,0.00,,---,0.00,VWS V14.01,2013-01-06 01:50:00,
2013-01-05 19:55:00,33.8,24.7,0.00,SSW,212,0.0,0.0,69,0.00,,---,0.00,VWS V14.01,2013-01-06 01:55:00,
2013-01-05 20:00:00,33.8,24.7,0.00,SSW,210,0.0,0.0,69,0.00,,---,0.00,VWS V14.01,2013-01-06 02:00:00,
2013-01-05 20:05:00,33.8,25.1,0.00,SSW,211,0.0,0.0,70,0.00,,---,0.00,VWS V14.01,2013-01-06 02:05:00,
2013-01-05 20:10:00,34.2,25.4,0.00,SSW,208,0.0,0.0,70,0.00,,---,0.00,VWS V14.01,2013-01-06 02:10:00,
2013-01-05 20:15:00,34.5,25.8,0.00,SSW,208,0.0,0.0,70,0.00,,---,0.00,VWS V14.01,2013-01-06 02:15:00,
2013-01-05 20:20:00,34.7,26.3,0.00,SSW,201,0.0,0.0,71,0.00,,---,0.00,VWS V14.01,2013-01-06 02:20:00,
2013-01-05 20:25:00,34.5,26.1,0.00,SSW,201,0.0,0.0,71,0.00,,---,0.00,VWS V14.01,2013-01-06 02:25:00,
2013-01-05 20:30:00,34.5,26.1,0.00,South,170,0.0,0.0,71,0.00,,---,0.00,VWS V14.01,2013-01-06 02:30:00,
2013-01-05 20:35:00,34.7,26.6,0.00,SSW,198,0.0,0.0,72,0.00,,---,0.00,VWS V14.01,2013-01-06 02:35:00,
2013-01-05 20:40:00,35.1,27.3,0.00,SSE,159,0.0,0.0,73,0.00,,---,0.00,VWS V14.01,2013-01-06 02:40:00,
2013-01-05 20:45:00,35.6,27.8,0.00,SE,130,2.2,3.6,73,0.00,,---,0.00,VWS V14.01,2013-01-06 02:45:00,
2013-01-05 20:50:00,35.8,28.0,0.00,SSW,202,0.0,0.0,73,0.00,,---,0.00,VWS V14.01,2013-01-06 02:50:00,
2013-01-05 20:55:00,35.6,27.5,0.00,WSW,253,0.0,0.0,72,0.00,,---,0.00,VWS V14.01,2013-01-06 02:55:00,
2013-01-05 21:00:00,35.6,27.8,0.00,WNW,294,0.0,0.0,73,0.00,,---,0.00,VWS V14.01,2013-01-06 03:00:00,
2013-01-05 21:05:00,36.1,28.0,0.00,WNW,286,0.0,0.0,72,0.00,,---,0.00,VWS V14.01,2013-01-06 03:05:00,
2013-01-05 21:10:00,36.0,27.5,0.00,WNW,286,0.0,0.0,71,0.00,,---,0.00,VWS V14.01,2013-01-06 03:10:00,
2013-01-05 21:15:00,35.2,26.8,0.00,WNW,286,0.0,0.0,71,0.00,,---,0.00,VWS V14.01,2013-01-06 03:15:00,
2013-01-05 21:20:00,34.9,26.8,0.00,WNW,286,0.0,0.0,72,0.00,,---,0.00,VWS V14.01,2013-01-06 03:20:00,
2013-01-05 21:25:00,35.1,27.0,0.00,WNW,286,0.0,0.0,72,0.00,,---,0.00,VWS V14.01,2013-01-06 03:25:00,
2013-01-05 21:30:00,35.2,27.5,0.00,WNW,286,0.0,0.0,73,0.00,,---,0.00,VWS V14.01,2013-01-06 03:30:00,
2013-01-05 21:35:00,35.8,27.6,0.00,SE,145,0.0,0.0,72,0.00,,---,0.00,VWS V14.01,2013-01-06 03:35:00,
2013-01-05 21:40:00,36.3,28.2,0.00,SSE,148,0.0,0.0,72,0.00,,---,0.00,VWS V14.01,2013-01-06 03:40:00,
2013-01-05 21:45:00,36.7,28.5,0.00,SSE,148,0.0,0.0,72,0.00,,---,0.00,VWS V14.01,2013-01-06 03:45:00,
2013-01-05 21:50:00,36.9,28.7,0.00,SW,227,0.0,0.0,72,0.00,,---,0.00,VWS V14.01,2013-01-06 03:50:00,
2013-01-05 21:55:00,37.2,29.0,0.00,SSW,211,4.9,5.4,72,0.00,,---,0.00,VWS V14.01,2013-01-06 03:55:00,
2013-01-05 22:00:00,38.1,29.9,0.00,SSW,205,4.0,4.0,72,0.00,,---,0.00,VWS V14.01,2013-01-06 04:00:00,
2013-01-05 22:05:00,38.7,30.4,0.00,SSW,199,0.0,0.0,72,0.00,,---,0.00,VWS V14.01,2013-01-06 04:05:00,
2013-01-05 22:10:00,38.8,30.3,0.00,SW,218,4.0,4.9,71,0.00,,---,0.00,VWS V14.01,2013-01-06 04:10:00,
2013-01-05 22:14:00,38.7,29.7,0.00,SSW,204,2.7,4.0,70,0.00,,---,0.00,VWS V14.01,2013-01-06 04:14:00,
2013-01-05 22:19:00,38.5,29.2,0.00,SSW,207,3.1,3.1,69,0.00,,---,0.00,VWS V14.01,2013-01-06 04:19:00,
2013-01-05 22:24:00,38.3,29.0,0.00,SW,218,3.6,4.0,69,0.00,,---,0.00,VWS V14.01,2013-01-06 04:24:00,
2013-01-05 22:29:00,38.1,28.9,0.00,SW,218,4.0,4.0,69,0.00,,---,0.00,VWS V14.01,2013-01-06 04:29:00,
2013-01-05 22:34:00,38.1,28.5,0.00,SSW,206,4.0,4.9,68,0.00,,---,0.00,VWS V14.01,2013-01-06 04:34:00,
2013-01-05 22:39:00,38.1,28.5,0.00,SSW,209,2.7,3.1,68,0.00,,---,0.00,VWS V14.01,2013-01-06 04:39:00,
2013-01-05 22:44:00,37.9,28.3,0.00,South,175,4.9,5.8,68,0.00,,---,0.00,VWS V14.01,2013-01-06 04:44:00,
2013-01-05 22:49:00,37.8,28.2,0.00,SSW,204,4.0,4.0,68,0.00,,---,0.00,VWS V14.01,2013-01-06 04:49:00,
2013-01-05 22:54:00,37.4,27.8,0.00,South,182,2.7,3.1,68,0.00,,---,0.00,VWS V14.01,2013-01-06 04:54:00,
2013-01-05 22:59:00,36.9,27.7,0.00,SSW,210,3.6,5.8,69,0.00,,---,0.00,VWS V14.01,2013-01-06 04:59:00,
2013-01-05 23:00:00,36.9,27.7,0.00,SSW,212,3.6,4.0,69,0.00,,---,0.00,VWS V14.01,2013-01-06 05:00:00,
2013-01-05 23:01:00,36.9,27.7,0.00,SSW,206,4.0,4.0,69,0.00,,---,0.00,VWS V14.01,2013-01-06 05:01:00,
2013-01-05 23:06:00,37.0,27.8,0.00,SW,235,5.4,5.4,69,0.00,,---,0.00,VWS V14.01,2013-01-06 05:06:00,
2013-01-05 23:07:00,37.0,27.8,0.00,SSW,212,4.9,4.9,69,0.00,,---,0.00,VWS V14.01,2013-01-06 05:07:00,
2013-01-05 23:12:00,37.2,28.0,0.00,SSW,208,5.8,5.8,69,0.00,,---,0.00,VWS V14.01,2013-01-06 05:12:00,
2013-01-05 23:17:00,37.4,27.8,0.00,South,178,4.0,4.0,68,0.00,,---,0.00,VWS V14.01,2013-01-06 05:17:00,
2013-01-05 23:22:00,37.6,28.0,0.00,SW,218,3.6,3.6,68,0.00,,---,0.00,VWS V14.01,2013-01-06 05:22:00,
2013-01-05 23:27:00,37.6,28.0,0.00,SW,226,6.3,6.3,68,0.00,,---,0.00,VWS V14.01,2013-01-06 05:27:00,
2013-01-05 23:32:00,37.8,28.2,0.00,South,177,4.0,4.0,68,0.00,,---,0.00,VWS V14.01,2013-01-06 05:32:00,
2013-01-05 23:37:00,37.9,28.3,0.00,SW,216,4.0,4.0,68,0.00,,---,0.00,VWS V14.01,2013-01-06 05:37:00,
2013-01-05 23:42:00,37.9,28.3,0.00,South,172,6.3,6.3,68,0.00,,---,0.00,VWS V14.01,2013-01-06 05:42:00,
2013-01-05 23:47:00,37.9,28.3,0.00,SSW,209,3.1,3.6,68,0.00,,---,0.00,VWS V14.01,2013-01-06 05:47:00,
2013-01-05 23:52:00,37.8,28.2,0.00,SW,223,3.1,4.0,68,0.00,,---,0.00,VWS V14.01,2013-01-06 05:52:00,
2013-01-05 23:57:00,37.8,28.2,0.00,SW,229,2.2,3.1,68,0.00,,---,0.00,VWS V14.01,2013-01-06 05:57:00,